Helicity
81 72 79 99 92 83 39 24 65 117 102 121 9 8 28 11 -40 40 37 41 163 130 86 51 67 76 60 56 51 40 53 48 26 30 50 34 16 28 21 42 51 42 43 44 39 44 54 47 42
100 108 133 138 93 45 43 66 35 82 57 24 80 -2 68 33 -98 112 128 138 161 150 101 55 67 71 55 42 42 23 16 41 12 42 27 48 38 61 101 95 52 48 22 22 28 33 45 39 17
102 106 156 120 107 36 58 74 27 18 52 69 38 1 4 -13 54 99 78 154 147 147 103 62 69 64 57 36 31 8 1 17 11 19 39 49 59 42 92 122 65 39 35 22 26 32 27 21 23
138 195 210 166 34 64 94 55 64 117 46 37 87 156 60 34 40 58 132 188 164 135 117 73 73 67 62 43 34 7 3 12 4 27 28 6 1 36 58 61 82 77 48 48 37 -4 1 33 40
176 228 195 152 -4 4 22 35 78 82 71 135 129 250 195 59 181 249 226 197 193 154 130 83 71 65 58 41 38 15 21 27 2 8 28 19 21 35 39 51 46 53 49 41 15 8 29 40 -9
196 208 198 71 57 43 10 24 97 77 136 162 252 326 167 177 324 217 198 192 125 194 144 101 59 52 47 39 51 21 31 48 29 16 41 34 4 14 19 33 37 44 42 42 31 31 41 -3 23
146 211 131 83 34 13 2 19 41 142 214 157 129 182 80 203 268 156 173 174 147 155 163 129 54 40 38 36 50 41 21 37 42 26 22 24 7 -0 2 -35 -31 21 52 5 -6 57 99 90 36
129 187 136 86 35 -44 -41 -34 -26 82 114 143 276 -3 178 195 243 218 187 169 166 111 122 129 61 55 46 32 43 44 33 32 40 31 6 1 6 -9 -29 -37 -41 -35 -18 -14 59 105 97 78 53
154 193 106 57 38 32 12 -0 -49 56 266 220 85 146 249 296 421 410 317 236 155 92 90 113 61 51 60 34 33 51 51 36 11 1 15 14 -0 -20 -32 -30 -22 -3 30 63 79 104 97 128 128
191 190 140 157 92 2 -22 -1 3 6 167 202 204 94 341 472 582 547 388 252 169 105 84 116 62 44 64 34 26 34 36 35 18 5 -0 15 15 22 43 45 39 45 30 54 72 96 83 114 121
194 154 175 61 52 13 28 70 -2 27 132 273 182 295 359 442 481 516 354 275 195 114 104 80 70 23 57 20 21 21 9 5 -8 -24 3 17 54 70 68 69 64 75 72 97 86 76 67 100 106
142 125 96 3 4 14 -11 -43 31 -9 10 -2 218 431 391 372 450 499 368 273 198 147 94 73 73 8 30 36 15 22 -15 -37 -35 -34 -49 -37 17 46 31 38 55 59 72 97 69 47 34 100 74
147 117 48 15 14 22 37 71 140 99 7 103 276 356 366 380 411 391 324 251 186 161 86 78 80 16 15 20 24 14 -6 -29 -57 7 43 46 26 -38 -10 -1 45 43 75 65 52 49 55 71 70
130 43 52 62 24 35 89 113 68 57 36 181 222 248 335 361 368 329 303 258 183 150 92 74 79 31 8 7 4 -5 9 -15 9 27 9 -20 -37 -74 -84 -82 -11 56 52 39 54 84 103 105 94
60 76 56 68 67 67 145 81 116 102 92 227 194 255 237 311 331 308 292 240 183 137 88 70 78 47 2 -13 -6 21 51 20 6 -4 -23 -37 -45 -53 -68 -48 -37 -37 15 118 136 141 112 91 92
119 76 91 15 43 34 76 12 80 70 126 178 191 197 215 279 264 323 269 223 148 143 101 56 75 40 15 -14 -1 18 30 -17 -70 -104 -92 -78 -50 -37 -15 -14 -55 -31 73 134 160 150 110 107 102
131 109 123 62 47 65 47 -9 72 85 101 172 175 190 213 184 190 267 315 262 180 158 107 72 65 48 25 -2 2 25 12 -20 -55 -76 -60 -35 -55 36 48 25 19 48 163 181 170 127 139 148 118
172 219 194 105 29 45 70 20 23 60 76 154 203 198 199 192 193 272 298 315 262 194 121 103 83 44 39 21 17 38 -5 -4 -0 -32 -45 -32 -14 51 55 95 102 139 184 174 147 168 154 141 167
201 206 127 95 86 80 81 26 -31 82 132 94 223 205 194 173 196 294 340 345 323 253 150 120 105 65 70 54 55 47 30 -8 -16 -18 -25 3 54 80 106 158 163 131 185 162 164 190 233 225 261
132 110 111 105 87 114 73 29 4 18 66 145 222 184 228 179 216 310 353 374 345 344 209 156 148 105 142 154 95 98 83 85 40 9 53 62 89 121 155 147 113 147 179 190 212 234 265 244 245
174 122 66 93 122 125 33 32 51 3 54 105 145 224 260 248 281 326 360 407 377 342 310 201 181 186 152 210 234 225 205 163 140 77 104 143 162 122 168 184 177 129 159 175 208 268 299 250 172
175 106 94 103 100 70 81 79 47 -38 4 55 169 184 183 240 296 438 402 406 416 389 361 297 214 222 237 208 227 209 175 194 169 135 135 172 210 145 141 176 167 137 179 203 217 256 294 293 248
140 110 141 109 88 31 11 80 17 -23 -15 44 110 191 155 228 319 383 466 467 391 473 466 380 288 256 307 249 202 216 222 238 230 185 168 166 200 178 132 162 167 163 192 205 245 252 314 303 295
141 127 138 114 74 44 -31 30 -18 -23 22 53 135 246 176 167 295 347 467 515 423 458 485 422 388 326 324 290 263 209 183 290 302 243 211 188 179 190 158 167 180 176 190 204 223 244 259 273 265
143 133 140 127 120 71 -45 -25 25 -11 101 85 199 221 157 135 255 323 422 523 502 454 472 467 415 345 304 250 280 282 194 255 296 320 311 276 248 238 187 196 176 178 180 170 207 222 234 245 230
100 99 172 163 140 78 38 -11 -2 -22 31 127 217 217 132 181 220 308 420 622 569 568 488 525 523 459 359 295 264 357 272 241 280 284 307 287 254 229 215 192 177 165 160 151 170 196 224 235 214
121 91 87 121 79 86 24 48 89 118 185 144 185 189 139 171 218 280 452 627 648 551 472 525 494 467 436 337 283 269 341 249 264 295 305 271 260 255 225 207 200 180 163 162 184 199 173 184 195
120 178 154 106 144 117 86 93 123 144 117 80 128 146 228 316 297 375 549 763 705 469 472 470 470 571 552 412 295 286 298 352 319 353 312 338 317 288 268 230 208 200 179 168 180 150 179 185 197
235 208 251 149 153 132 128 145 187 86 247 195 169 173 297 552 643 687 758 796 671 514 564 465 423 483 464 349 281 271 330 361 352 324 299 302 306 320 262 243 226 223 225 196 169 168 190 217 209
184 312 278 184 261 301 212 108 140 185 246 344 323 393 457 528 627 639 693 677 650 550 435 455 533 503 476 420 336 238 420 386 388 356 299 315 305 289 275 289 247 224 232 242 165 190 195 202 203
Wind_Speed
23 20 23 27 46 49 50 46 42 36 35 31 39 43 52 50 52 21 31 30 37 38 38 38 38 39 42 46 45 50 46 40 42 46 46 51 44 19 23 31 17 15 16 15 14 13 13 18 16
23 25 31 35 54 65 56 44 53 35 29 30 32 39 48 53 30 23 24 34 36 37 38 40 40 41 42 45 43 48 46 37 45 39 48 31 30 17 16 22 19 14 13 15 13 17 13 14 18
25 30 35 40 53 78 54 42 40 30 9 24 28 35 45 35 19 25 27 37 35 35 38 41 41 41 41 44 42 46 46 38 42 43 40 32 20 17 19 14 13 14 12 12 13 12 15 17 21
29 35 43 57 80 60 43 37 38 39 39 36 21 23 28 29 31 20 40 35 36 33 36 40 41 41 41 42 40 45 44 38 40 40 37 35 27 17 13 10 13 14 17 14 13 10 11 9 8
33 37 57 68 86 80 68 55 43 40 43 40 31 23 19 29 24 41 35 34 35 34 34 37 39 40 41 38 36 40 39 36 41 34 33 31 25 22 16 15 14 13 14 17 13 10 8 5 35
42 43 59 90 89 78 70 49 36 34 35 30 25 25 27 23 32 32 31 33 33 35 33 33 37 37 39 35 32 34 36 30 36 35 23 22 26 33 33 17 20 17 17 20 16 12 8 44 31
49 56 74 79 80 79 77 29 36 50 40 31 8 28 17 15 28 32 29 32 32 30 29 29 30 33 36 31 31 25 29 26 33 45 40 32 37 38 36 44 36 15 30 13 19 11 4 3 8
47 57 78 77 81 86 76 53 47 34 27 31 15 46 10 2 20 27 29 29 30 27 26 28 26 26 31 25 27 27 22 23 23 32 51 47 32 31 37 41 39 31 20 21 21 12 4 15 22
40 70 92 93 83 82 59 56 46 30 15 27 12 12 35 25 20 17 25 25 27 24 23 26 25 26 29 29 24 24 18 20 25 34 27 31 22 24 23 21 21 14 9 14 17 11 20 25 26
52 76 86 70 76 88 75 61 60 52 25 20 8 8 24 26 30 24 22 24 29 28 23 26 25 26 26 23 24 22 18 16 19 20 21 20 18 18 26 27 21 19 10 9 10 10 30 22 18
56 89 70 82 79 88 89 84 68 59 32 23 16 15 24 28 35 27 26 26 32 31 24 26 29 24 23 22 23 24 24 20 22 27 19 19 27 41 41 45 51 44 24 13 6 18 24 25 25
84 80 75 90 81 88 92 71 80 71 57 53 19 27 30 35 36 32 28 25 29 32 27 28 31 29 21 21 22 23 35 32 28 24 31 29 31 65 66 62 47 27 15 2 9 18 24 27 29
88 84 91 92 87 93 91 92 86 85 58 36 23 34 33 34 31 30 28 27 32 32 33 31 32 32 25 26 21 23 29 30 29 27 71 70 70 72 70 66 33 11 7 5 17 20 23 25 28
67 82 100 95 95 91 93 94 70 80 53 29 29 30 29 31 33 30 29 26 32 33 36 32 33 36 30 24 29 26 24 25 41 70 75 75 71 61 60 60 63 36 1 12 29 27 25 26 29
84 98 100 100 94 94 83 101 84 73 34 35 35 30 28 29 28 35 33 29 32 35 38 37 36 38 37 28 31 25 50 36 37 71 77 74 70 58 56 65 62 40 14 25 22 24 29 28 28
84 84 104 110 93 91 60 110 85 59 39 42 40 35 32 34 35 31 33 30 32 34 41 38 38 38 39 33 27 25 31 26 27 42 64 61 59 45 22 11 23 16 24 28 22 22 21 23 24
80 111 109 102 94 74 63 103 95 60 43 46 48 41 36 33 33 32 34 35 33 34 40 42 42 46 38 34 28 29 28 29 30 30 30 35 41 19 10 9 11 17 22 20 21 16 19 21 23
89 98 100 104 86 72 89 101 96 73 47 48 53 47 42 36 38 36 40 36 36 34 38 39 42 43 42 34 31 30 28 29 25 29 32 31 20 13 11 12 16 18 20 17 13 15 16 20 23
104 92 112 106 87 79 91 103 104 92 54 51 58 54 49 44 36 35 42 43 39 38 39 43 47 43 42 38 36 35 34 28 26 27 28 23 15 20 18 20 19 18 18 17 15 13 16 16 21
107 114 117 97 83 81 101 107 95 99 87 52 56 59 55 48 45 41 42 47 49 43 45 41 46 44 41 34 34 32 32 31 26 24 22 21 17 19 18 23 20 16 11 14 15 14 9 12 15
111 113 115 102 77 84 84 106 99 95 100 75 55 56 57 57 54 49 47 48 51 52 50 47 44 44 41 36 35 33 32 30 26 27 26 21 22 19 20 18 15 14 14 15 14 13 9 9 7
120 111 103 95 83 100 72 109 89 85 93 96 64 59 56 64 65 57 54 50 53 56 51 49 46 46 42 40 39 39 38 39 34 28 26 24 24 22 21 20 16 14 13 13 14 13 9 5 2
120 97 90 90 89 97 97 84 96 78 89 97 76 55 58 56 65 66 60 57 51 52 54 54 50 48 50 45 44 42 40 37 31 29 28 27 26 25 24 23 20 16 14 13 13 12 9 6 4
99 92 86 75 87 107 113 87 109 91 92 94 82 58 52 54 62 66 63 59 55 51 53 55 56 56 53 49 49 49 45 45 36 32 31 30 28 26 25 24 22 18 16 15 13 12 12 10 10
84 91 97 96 94 103 97 80 97 77 80 91 71 62 48 53 56 65 71 65 62 54 51 55 57 55 51 57 53 53 51 46 44 37 35 33 32 29 27 25 24 21 19 17 15 15 15 14 15
79 81 89 91 92 104 98 87 94 82 64 56 62 73 57 47 59 60 63 67 62 57 52 53 57 60 57 54 51 58 56 50 48 44 39 36 34 32 28 28 27 25 22 21 21 21 20 21 20
60 75 69 80 76 81 79 81 85 59 54 49 52 63 70 52 56 59 60 62 62 59 54 50 53 59 59 59 56 53 62 55 51 46 43 40 37 35 31 31 31 28 26 25 24 26 24 25 25
28 36 63 64 89 101 75 65 80 68 58 48 49 47 49 51 53 57 59 58 56 58 54 54 49 51 57 59 62 59 59 60 57 52 50 46 42 38 36 35 32 30 29 29 24 23 29 29 30
30 38 43 54 60 84 81 65 53 55 54 49 42 37 36 37 42 45 50 53 52 48 48 51 50 55 58 63 64 65 64 61 56 54 51 50 43 41 38 35 33 32 32 30 28 27 35 27 23
26 33 35 48 56 56 65 53 36 30 36 36 34 29 29 32 40 46 51 48 46 47 43 38 38 46 53 56 62 66 63 61 59 58 58 52 48 45 41 37 34 28 25 25 23 31 29 24 20
Wind_Direction
309 316 321 320 288 280 284 296 298 298 308 341 318 269 263 259 251 308 98 101 108 102 98 93 86 83 88 93 91 94 93 90 95 98 102 104 102 127 102 92 104 108 148 146 110 106 103 87 94
300 303 302 303 276 262 279 298 285 297 305 329 357 276 256 245 187 90 85 108 108 101 97 95 91 89 90 95 92 97 98 96 96 98 102 107 103 151 142 98 102 148 114 104 141 94 108 108 92
294 291 290 289 277 253 281 295 302 313 346 327 319 306 261 284 91 103 101 110 106 99 97 98 95 93 92 94 96 101 102 100 99 100 102 100 120 108 100 138 129 161 149 109 107 117 108 97 83
287 286 286 274 250 270 285 300 303 299 299 302 324 14 92 114 101 85 115 108 108 100 98 99 97 95 93 95 97 100 107 106 102 103 103 102 104 106 110 133 170 168 179 173 167 144 119 113 94
284 284 271 268 240 248 266 287 297 296 294 284 295 340 354 272 78 108 108 109 112 105 100 99 99 97 95 97 97 100 104 107 105 107 109 107 105 103 104 114 135 147 171 180 169 153 141 113 92
273 278 271 250 253 260 266 290 294 294 294 284 303 336 301 88 103 106 106 111 112 110 104 101 102 100 98 98 98 100 104 108 106 106 121 119 112 102 98 129 165 164 173 183 176 175 88 118 159
270 268 264 262 262 261 247 292 289 290 276 281 278 300 309 70 103 108 106 112 112 109 106 103 104 104 102 102 101 103 107 113 109 107 106 109 106 104 100 98 97 148 182 112 88 75 63 343 343
274 271 262 263 259 252 247 275 290 300 279 293 289 282 185 337 106 103 106 113 114 114 111 108 109 108 106 107 108 108 116 118 121 111 111 109 110 107 102 99 96 91 89 88 75 63 25 42 39
280 264 256 254 258 238 262 265 286 319 287 288 296 138 146 145 125 114 111 116 120 123 119 115 118 116 112 111 113 114 130 129 119 114 120 116 124 114 108 103 98 101 169 194 66 55 54 59 49
267 262 261 269 264 250 257 263 274 298 280 281 286 158 143 134 145 143 136 132 133 135 132 124 125 124 121 117 118 121 134 145 138 135 130 136 151 174 193 195 195 199 199 209 55 41 69 49 33
272 262 272 268 266 256 249 256 273 285 270 237 228 189 155 150 150 156 146 142 140 140 140 134 132 133 133 129 126 124 127 137 132 126 149 152 192 197 197 193 185 191 210 225 2 47 57 54 49
267 268 270 263 267 261 250 264 264 273 280 262 198 174 163 161 159 163 155 148 144 145 147 141 137 138 141 141 139 137 127 127 130 137 126 125 181 180 176 180 195 214 226 353 21 51 60 56 59
265 267 266 264 266 260 256 253 260 265 285 266 213 173 169 167 169 165 158 146 145 148 151 148 144 142 147 142 151 145 138 136 135 190 183 183 180 158 169 173 215 227 245 298 65 62 52 62 59
274 267 262 262 258 257 253 252 265 263 282 240 194 191 180 171 171 172 163 157 152 151 155 152 150 146 148 156 146 153 178 174 194 191 183 167 158 143 143 143 173 215 322 62 92 82 67 63 69
271 265 262 258 256 257 260 253 256 262 264 226 208 194 189 184 181 176 168 162 158 154 155 155 153 149 149 158 151 178 207 203 207 192 178 169 163 145 143 159 162 126 84 105 89 74 74 70 63
268 266 257 249 256 256 263 250 252 258 245 232 217 205 196 182 187 185 177 171 161 157 156 157 155 154 151 156 172 175 201 181 159 147 158 155 151 140 131 133 123 117 112 113 98 84 71 61 56
263 255 254 255 252 259 258 251 248 253 240 235 226 218 206 198 207 201 185 179 172 164 160 160 161 158 159 163 182 204 173 169 160 156 154 151 150 151 170 156 124 118 123 117 107 82 73 61 59
253 254 254 252 251 255 253 252 246 251 241 233 228 223 213 203 202 199 192 189 183 180 169 167 167 164 165 175 184 205 189 178 180 167 162 160 170 199 192 157 140 136 128 123 108 91 60 75 70
260 260 254 253 254 255 252 251 245 247 247 237 232 224 223 214 210 210 198 193 198 193 183 173 171 173 174 180 183 190 182 185 178 178 172 177 194 170 163 155 149 148 138 134 122 95 87 60 71
255 252 251 255 254 251 249 249 251 246 251 238 230 233 230 226 224 222 203 200 202 196 188 190 179 181 183 195 194 200 209 215 203 204 195 202 195 189 174 161 161 165 161 144 136 124 76 69 91
249 247 246 249 254 253 254 251 251 247 245 251 232 226 235 228 224 221 208 203 202 201 196 193 194 186 192 200 204 209 221 220 217 203 199 209 199 202 191 193 188 184 170 160 156 146 122 113 78
244 243 247 249 249 244 249 246 249 248 247 245 243 229 228 233 229 217 210 206 202 202 202 204 208 210 209 208 207 202 211 226 234 215 219 213 202 204 209 210 215 211 200 183 172 166 157 133 146
240 243 247 247 249 247 246 251 246 252 250 243 243 228 224 224 228 225 216 208 205 209 211 206 206 211 217 212 220 218 218 228 224 222 212 211 209 209 213 221 225 228 218 198 185 190 197 210 265
240 242 247 251 247 245 241 247 245 249 252 246 242 234 223 219 227 227 218 220 218 217 216 217 211 218 220 216 223 227 226 231 221 212 206 206 211 221 220 220 225 225 216 210 214 223 237 247 273
237 234 237 240 242 242 241 246 244 251 255 249 240 236 231 222 226 228 229 223 223 220 219 222 218 214 216 224 226 226 233 229 222 213 209 210 218 226 223 221 223 230 230 233 244 253 263 260 268
237 234 233 235 238 240 242 245 244 251 262 260 247 244 243 228 223 221 225 223 217 215 214 220 218 224 224 223 227 231 237 238 232 230 229 223 222 225 227 228 231 239 245 250 258 268 272 278 278
238 235 242 241 246 245 248 250 249 250 254 259 256 252 253 238 219 218 220 219 218 218 218 219 225 228 229 232 232 229 233 238 234 231 229 230 233 230 227 233 237 243 251 258 262 269 273 280 285
260 262 237 242 239 239 245 246 241 243 247 254 258 261 257 254 232 227 224 220 220 221 225 229 228 226 225 232 238 237 233 236 239 236 233 233 234 232 233 236 235 243 254 261 264 271 279 280 290
272 257 255 251 249 237 237 242 267 253 246 246 253 261 258 252 238 230 229 224 220 219 227 234 238 242 240 239 239 240 239 234 235 234 234 236 233 231 228 234 239 245 253 259 266 272 280 285 290
289 286 269 247 247 245 241 244 290 261 244 238 245 258 265 260 250 240 237 225 222 230 226 228 240 243 246 247 246 248 238 237 235 238 239 235 232 230 232 239 239 241 247 262 256 276 281 283 289